Location: Unspecified
(58.7730°N, 5.8460°E)
Time: 15:07:04
(UTC+01:00)

Okean 3 - Visible Passes

Search period start: 21 November 2017 00:00
Search period end: 01 December 2017 00:00
Orbit: 576 x 603 km, 82.5° (Epoch: 20 November)

Date Brightness Start Highest point End Pass type
(mag) Time Alt. Az. Time Alt. Az. Time Alt. Az.
21 Nov 6.5 04:45:42 10° NNE 04:46:45 11° NE 04:47:48 10° ENE visible
21 Nov 4.5 06:21:04 10° N 06:25:09 46° ENE 06:29:12 10° SE visible
22 Nov 6.4 04:53:04 10° NNE 04:55:12 13° NE 04:57:19 10° E visible
22 Nov 3.9 06:29:11 10° N 06:33:22 61° ENE 06:37:33 10° SSE visible
23 Nov 6.2 05:00:50 10° NNE 05:03:36 17° NE 05:06:22 10° E visible
23 Nov 3.5 06:37:20 10° NNW 06:41:35 83° ENE 06:45:48 10° SSE visible
24 Nov 5.9 05:08:44 10° N 05:11:58 21° ENE 05:15:13 10° ESE visible
24 Nov 3.3 06:45:31 10° NNW 06:49:44 74° W 06:53:57 10° S visible
25 Nov 5.5 05:16:50 11° N 05:20:19 26° ENE 05:23:55 10° ESE visible
25 Nov 3.5 06:53:45 10° NNW 06:57:52 54° W 07:02:00 10° S visible
26 Nov 5.0 05:25:26 14° N 05:28:37 34° ENE 05:32:29 10° SE visible
26 Nov 3.9 07:02:00 10° NNW 07:05:58 40° W 07:09:56 10° SSW visible
27 Nov 6.6 03:57:35 10° NE 03:58:28 11° NE 03:59:21 10° ENE visible
27 Nov 4.5 05:34:06 19° N 05:36:53 44° ENE 05:40:57 10° SE visible
27 Nov 4.2 07:10:41 12° NNW 07:14:02 30° W 07:17:46 10° SSW visible
28 Nov 6.4 04:06:16 13° NE 04:06:55 13° NE 04:08:58 10° E visible
28 Nov 3.9 05:42:51 26° N 05:45:07 59° ENE 05:49:19 10° SSE visible
28 Nov 4.6 07:19:27 14° NW 07:22:04 23° W 07:25:25 10° SW visible
29 Nov 6.2 04:15:05 16° NE 04:15:19 16° NE 04:18:03 10° E visible
29 Nov 3.5 05:51:41 37° N 05:53:19 80° ENE 05:57:34 10° SSE visible
29 Nov 4.9 07:28:16 14° NW 07:30:04 18° W 07:32:56 10° SW visible
30 Nov 5.9 04:24:00 20° ENE 04:24:00 20° ENE 04:26:55 10° ESE visible
30 Nov 3.3 06:00:37 55° NNW 06:01:30 77° WSW 06:05:44 10° S visible
30 Nov 5.2 07:37:12 13° WNW 07:38:02 14° W 07:40:10 10° WSW visible
30 Nov 5.4 18:33:23 10° SSE 18:34:20 16° SSE 18:34:20 16° SSE visible
30 Nov 6.2 20:10:30 10° SW 20:10:56 12° SW 20:10:56 12° SW visible
